www.pogodaiklimat.ru

Погода и климат >> Архив погоды >> Индия >> Западная Бенгалия >> Дига


ПОГОДА в Диге

  • Прогноз погоды в Диге
  • Монитор погоды в Диге

АРХИВ ПОГОДЫ в Диге

Время (UTC), дата Ветер
(напр.,м/с)
 
Видим.   Явления Облачность Т
(С)
Тd
(С)
f
(%)
Тe
(С)
Тes
(С)
Комфортность P
(гПа)
Po
(гПа)
Тmin
(С)
Tmax
(С)
R
(мм)
R24
(мм)
S
(см)
15 12.06 Ю 1 4000 м 6/5 600 м
[Sc diur, vesp Ac trans]
+31.4 +28.7 86 +54 +54 опасность
перегрева
997.9 997.2
18 12.06 С 1 4000 м 5/4 600 м
[Sc diur, vesp Ac trans]
+31.6 +29.2 87 +55 +55 опасность
перегрева
1001.5 1000.8
21 12.06 З 1 4000 м {дождь} 6/5 600 м
[Sc Ac trans]
+24.4 +24.4 100 +34 +34 очень
душно
1000.5 999.8 10
00 13.06 З 1 4000 м {дождь} 6/5 600 м
[Sc Ac trans]
+24.6 +24.6 100 +34 +35 очень
душно
998.9 998.2 10
03 13.06 З 2 4000 м 9/4 600 м
[Sc diur, vesp Ac As]
+28.8 +25.1 80 +42 +45 опасность
перегрева
1000.9 1000.2 +23.0 10
06 13.06 Ю 1 4000 м 8/3 600 м
[Sc Ac As]
+33.2 +26.9 70 +51 +61 опасность
перегрева
999.4 998.7
09 13.06 Ю 1 4000 м 6/3 600 м
[Sc diur, vesp Ac trans Ci sp]
+34.2 +27.9 70 +55 +64 опасность
перегрева
997.5 996.8
12 13.06 Ю 1 4000 м 6/4 600 м
[Sc diur, vesp Ac As]
+33.0 +27.5 73 +52 +53 опасность
перегрева
997.1 996.4 +34.8
15 13.06 Ю 1 4000 м 3/3 600 м
[Sc diur, vesp]
+31.0 +28.0 84 +51 +51 опасность
перегрева
998.6 997.9
18 13.06 Ю 1 4000 м 3/3 600 м
[Sc diur, vesp]
+30.8 +28.6 88 +52 +52 опасность
перегрева
998.8 998.1
21 13.06 штиль 0 4000 м 3/3 600 м
[Sc diur, vesp]
+30.4 +28.5 90 +52 +52 опасность
перегрева
998.2 997.5
00 14.06 Ю 1 4000 м 5/3 600 м
[Sc diur, vesp Ac trans]
+30.0 +28.4 91 +51 +51 опасность
перегрева
997.2 996.5
03 14.06 З 1 4000 м 5/3 600 м
[Sc diur, vesp Ac trans]
+34.0 +28.9 75 +57 +66 опасность
перегрева
998.8 998.1 +29.3
06 14.06 Ю 3 4000 м 4/4 600 м
[Sc diur, vesp]
+35.0 +28.2 68 +56 +68 опасность
перегрева
998.3 997.6
09 14.06 Ю 2 4000 м 4/3 600 м
[Sc diur, vesp Ac trans]
+36.6 +28.2 62 +57 +67 опасность
перегрева
995.4 994.7
12 14.06 Ю 1 4000 м 4/4 600 м
[Sc diur, vesp]
+35.2 +29.2 71 +59 +60 опасность
перегрева
995.7 995.0 +36.8
15 14.06 штиль 0 4000 м зарница 9/5 600 м
[Cb cap Ac trans]
+31.6 +24.8 67 +45 +45 опасность
перегрева
999.2 998.5
18 14.06 В 2 4000 м слаб. дождь 9/4 600 м
[Sc diur, vesp Ac As]
+31.0 +27.1 80 +49 +49 опасность
перегрева
999.8 999.1 0.1
21 14.06 Ю 1 4000 м {дождь} 9/4 600 м
[Sc diur, vesp Ac As]
+30.6 +28.7 90 +53 +53 опасность
перегрева
996.6 995.9 0.4
00 15.06 ЮЗ 1 4000 м {дождь} 8/4 600 м
[Sc diur, vesp Ac As]
+30.6 +25.8 76 +46 +46 опасность
перегрева
996.8 996.1 0.4
03 15.06 З 1 4000 м 6/4 600 м
[Sc diur, vesp Ac trans]
+32.2 +28.4 80 +54 +60 опасность
перегрева
998.5 997.8 +29.4 0.4
06 15.06 Ю 1 4000 м 8/5 600 м
[Sc diur, vesp Ac trans]
+32.6 +28.0 77 +53 +62 опасность
перегрева
999.1 998.4
09 15.06 Ю 2 4000 м 8/5 600 м
[Sc Ac trans]
+33.0 +28.1 76 +54 +58 опасность
перегрева
997.3 996.6
12 15.06 ЮЗ 2 4000 м 8/4 600 м
[Sc diur, vesp Ac trans]
+31.6 +27.8 80 +51 +51 опасность
перегрева
997.3 996.6 +33.3
15 15.06 штиль 0 4000 м 8/4 600 м
[Sc diur, vesp Ac trans]
+28.6 +24.0 76 +40 +40 очень
душно
998.3 997.6
18 15.06 ЮЗ 3 4000 м 6/4 600 м
[Sc diur, vesp Ac trans]
+31.0 +28.0 84 +51 +51 опасность
перегрева
1000.1 999.4
21 15.06 Ю 2 4000 м 8/4 600 м
[Sc Ac trans]
+29.8 +25.9 80 +45 +45 опасность
перегрева
999.2 998.5
00 16.06 З 2 4000 м слаб. дождь 9/5 600 м
[Sc Ac As]
+28.6 +24.0 76 +40 +40 очень
душно
998.4 997.7 0.0
03 16.06 З 2 4000 м {дождь} 4/3 600 м
[Sc diur, vesp Ac trans]
+31.6 +26.3 74 +48 +56 опасность
перегрева
998.9 998.2 +26.9 0.1
06 16.06 Ю 1 4000 м {дождь} 1/0 2000 м
[Ac trans]
+35.0 +27.3 64 +53 +78 опасность
перегрева
999.0 998.3
09 16.06 ЮЗ 3 4000 м 5/4 600 м
[Sc diur, vesp Ac trans]
+33.8 +26.9 67 +51 +57 опасность
перегрева
998.3 997.6
12 16.06 З 3 4000 м 5/1 600 м
[Sc Ac As]
+32.4 +27.2 74 +51 +51 опасность
перегрева
996.9 996.2 +35.8
15 16.06 З 2 4000 м 3/3 600 м
[Sc diur, vesp]
+31.6 +26.9 76 +49 +49 опасность
перегрева
998.2 997.5
18 16.06 З 2 4000 м 6/4 600 м
[Sc diur, vesp Ac trans]
+31.0 +27.4 81 +49 +49 опасность
перегрева
998.7 998.0
21 16.06 З 1 4000 м 6/5 600 м
[Sc diur, vesp Ac trans]
+30.8 +28.1 86 +51 +51 опасность
перегрева
997.0 996.3
00 17.06 штиль 0 4000 м 6/4 600 м
[Sc diur, vesp Ac trans]
+30.4 +27.9 87 +50 +50 опасность
перегрева
995.7 995.0
03 17.06 З 2 4000 м {дождь} 9/3 600 м
[Sc Ac As]
+30.6 +24.9 72 +44 +47 опасность
перегрева
999.1 998.4 +29.2 0.0
06 17.06 СЗ 1 4000 м {дождь} 9/3 600 м
[Sc Ac As]
+32.6 +26.5 70 +49 +57 опасность
перегрева
999.5 998.8
09 17.06 Ю 1 4000 м 9/5 600 м
[Sc diur, vesp Ac As]
+34.0 +28.9 75 +57 +61 опасность
перегрева
998.1 997.4
12 17.06 Ю 2 4000 м 4/0 2000 м
[Ac trans Ci fib]
+33.8 +28.7 75 +57 +57 опасность
перегрева
997.1 996.4 +35.2
15 17.06 ЮЗ 1 4000 м 4/0 2000 м
[Ac trans Ci fib]
+32.0 +29.3 86 +56 +56 опасность
перегрева
998.9 998.2
18 17.06 ЮЗ 1 4000 м 4/0 2000 м
[Ac trans]
+31.4 +27.8 81 +51 +51 опасность
перегрева
999.6 998.9
21 17.06 штиль 0 4000 м 5/0 2000 м
[Ac trans]
+30.8 +27.8 84 +50 +50 опасность
перегрева
997.6 996.9
00 18.06 штиль 0 4000 м 6/3 600 м
[Sc Ac trans]
+30.0 +27.8 88 +49 +49 опасность
перегрева
998.2 997.5
03 18.06 С 1 4000 м 3/0
[Ci sp]
+33.8 +26.9 67 +51 +65 опасность
перегрева
998.8 998.1 +29.0
06 18.06 В 2 4000 м 4/4 600 м
[Sc diur, vesp]
+37.4 +28.5 61 +59 +73 опасность
перегрева
999.3 998.6
09 18.06 ЮВ 1 4000 м в посл. час гроза 6/3 600 м
[Sc diur, vesp Ac trans]
+36.4 +28.8 65 +59 +67 опасность
перегрева
997.8 997.1
12 18.06 ЮЗ 1 4000 м {гроза, дождь} 5/4 600 м
[Sc diur, vesp Ac trans]
+32.2 +28.9 83 +55 +56 опасность
перегрева
996.7 996.0 +38.2 0.9
15 18.06 ЮЗ 1 4000 м 3/1 600 м
[Sc diur, vesp Ac trans]
+31.2 +28.2 84 +52 +52 опасность
перегрева
999.2 998.5 0.9
18 18.06 Ю 1 4000 м 6/4 600 м
[Sc diur, vesp Ac trans]
+31.0 +28.3 86 +52 +52 опасность
перегрева
999.8 999.1 0.9
21 18.06 Ю 1 4000 м 8/5 600 м
[Sc diur, vesp Ac trans]
+30.6 +27.9 86 +51 +51 опасность
перегрева
999.1 998.4 0.9
00 19.06 В 2 4000 м гроза без осадков 8/4 600 м
[Cb cap Ac trans]
+28.8 +24.8 79 +41 +41 опасность
перегрева
998.6 997.9 0.9
03 19.06 штиль 0 4000 м {гроза} 5/4 600 м
[Sc diur, vesp Ac trans]
+34.2 +26.4 64 +51 +59 опасность
перегрева
999.6 998.9 +28.0 0.9
06 19.06 ЮЗ 2 4000 м 4/4 600 м
[Sc diur, vesp]
+35.4 +27.8 65 +56 +70 опасность
перегрева
999.4 998.7
09 19.06 Ю 1 4000 м 4/4 600 м
[Sc diur, vesp]
+36.2 +27.8 62 +56 +65 опасность
перегрева
997.3 996.6
12 19.06 Ю 2 4000 м 9/4 600 м
[Sc diur, vesp Ac As]
+33.2 +27.4 72 +52 +53 опасность
перегрева
999.0 998.3 +36.7

 

Местоположение метеостанции Дига (Западная Бенгалия, Индия): широта 21.62 долгота 87.50 высота над уровнем моря 6 м.

В архиве по умолчанию представлена погода в Диге за последнюю неделю. Архивные данные за месяц целиком и за предыдущие месяцы, начиная с января 2011 года, Вы можете получить, выбрав интересующий диапазон дат из раскрывающегося списка и нажав кнопку "Ввод!".


*Определитесь, кто Вы:
робот инопланетянин человек

Внимание! Время в таблицах - всемирное. Для получения местного времени необходимо прибавить поправку, которая равна 5.5 ч.

Смотрите также архив погоды в соседних городах и на ближайших метеорологических станциях:

Погода в Контае (Западная Бенгалия, Индия) (31 км)
Погода в Баласоре (Орисса, Индия) (60 км)
Погода в Халдии (Западная Бенгалия, Индия) (73 км)
Погода в Барипаде (Орисса, Индия) (83 км)
Погода в Миднапуре (Западная Бенгалия, Индия) (91 км)
Погода в Даймонд Харбор (Западная Бенгалия, Индия) (95 км)
Погода в Улуберии (Западная Бенгалия, Индия) (108 км)
Погода в Чандбали (Орисса, Индия) (123 км)
Погода в Колкате (Западная Бенгалия, Индия) (133 км)
Погода в Каннинге (Западная Бенгалия, Индия) (140 км)

Пояснения к столбцам:

Ветер - указаны скорость ветра в м/с - средняя за 10 мин, порывы в срок и между сроками (в фигурных скобках) и направление, откуда дует ветер: С - северный, СВ - северо-восточный, В - восточный, ЮВ - юго-восточный, Ю - южный, ЮЗ - юго-западный, З - западный, СЗ - северо-западный.
Видимость - горизонтальная дальность видимости в метрах или километрах. При видимости от 1 до 10 км при отсутствии осадков обычно наблюдается дымка, при ухудшении видимости до 1 км и менее - туман. В сухую погоду видимость может ухудшаться дымом, пылью или мглою.
Явления - указаны атмосферные явления, наблюдавшиеся в срок или в последний час перед сроком; фигурными скобками обозначены явления, наблюдавшиеся между сроками (за 1-3 часа до срока); квадратными скобками обозначены град или гололедные отложения с указанием их диаметра в мм.
Облачность - указаны через наклонную черту общая и нижняя облачность в баллах и высота нижней границы облаков в метрах; квадратными скобками обозначены формы облаков: Ci - перистые, Cs - перисто-слоистые, Cc - перисто-кучевые, Ac - высококучевые, As - высокослоистые, Sc - слоисто-кучевые, Ns - слоисто-дождевые, Cu - кучевые, Cb - кучево-дождевые. Подробнее классификацию облаков см. в Атласе облаков (PDF).
T - Температура воздуха - температура, измеренная на высоте 2 м над землей.
Td - Температура точки росы - температура, при понижении до которой содержащийся в воздухе водяной пар достигнет насыщения.
f - Относительная влажность воздуха - влажноcть воздуха, измеренная на высоте 2 м над землей.
Te - Эффективная температура - температура, которую ощущает одетый по сезону человек в тени. Характеристика душности погоды. При расчете учитывается влияние влажности воздуха и скорости ветра на теплоощущения человека.
Tes - Эффективная температура на солнце - температура, которую ощущает человек, с поправкой на солнечный нагрев. Характеристика знойности погоды. Зависит от высоты солнца над горизонтом, облачности и скорости ветра. Ночью, в пасмурную погоду, а также при ветре 12 м/с и более поправка равна нулю.
P - Атмосферное давление - приведенное к уровню моря атмосферное давление.
Po - Атмосферное давление - измеренное на уровне метеостанции атмосферное давление.
Tmin - Минимальная температура - минимум температуры воздуха на высоте 2 м над землей.
Tmax - Максимальная температура - максимум температуры воздуха на высоте 2 м над землей.
R - Количество осадков - Количество выпавших осадков за период времени, мм. При наведении курсора мыши на число - период времени, за который выпало указанное количество осадков.
R24 - Количество осадков - Количество выпавших осадков за 24 часа, мм.
S - Снежный покров - Высота снежного покрова, см. При наведении курсора мыши на число - состояние снежного покрова и степень покрытия местности в баллах.